This is the latest recevied weather packets stored in our database for station/object WA6ODQ-13. If no packets are shown the sender has not sent any weather packets the latest 10 day(s).
| Time | Temp. | Humidity | Pressure | Rain* | Wind** | Luminosity | Snow |
|---|---|---|---|---|---|---|---|
| 1777735967 | 13.33° C | 87% | 1010.1 hPa | 0 mm | - | 102 W/m² | - |
| 1777735664 | 13.33° C | 87% | 1010.1 hPa | 0 mm | - | 99 W/m² | - |
| 1777735362 | 13.33° C | 87% | 1010 hPa | 0 mm | - | 102 W/m² | - |
| 1777735059 | 13.33° C | 87% | 1009.8 hPa | 0 mm | - | 103 W/m² | - |
| 1777734756 | 13.33° C | 87% | 1010 hPa | 0 mm | - | 102 W/m² | - |
| 1777734454 | 13.33° C | 87% | 1010.3 hPa | 0 mm | - | 103 W/m² | - |
| 1777734150 | 13.33° C | 87% | 1010 hPa | 0 mm | - | 93 W/m² | - |
| 1777733846 | 12.78° C | 87% | 1009.9 hPa | 0 mm | - | 79 W/m² | - |
| 1777733240 | 12.78° C | 88% | 1010.1 hPa | 0 mm | - | 60 W/m² | - |
| 1777732632 | 12.78° C | 88% | 1009.8 hPa | 0 mm | - | 51 W/m² | - |
| 1777732330 | 12.78° C | 88% | 1009.8 hPa | 0 mm | - | 47 W/m² | - |
| 1777732028 | 12.78° C | 88% | 1009.6 hPa | 0 mm | - | 40 W/m² | - |
| 1777731724 | 12.78° C | 88% | 1009.5 hPa | 0 mm | - | 34 W/m² | - |
| 1777731421 | 12.78° C | 88% | 1009.3 hPa | 0 mm | - | 31 W/m² | - |
| 1777731120 | 12.78° C | 88% | 1009.3 hPa | 0 mm | - | 30 W/m² | - |
| 1777730817 | 12.78° C | 88% | 1009.4 hPa | 0 mm | - | 30 W/m² | - |
| 1777730514 | 12.78° C | 88% | 1009.2 hPa | 0 mm | - | 28 W/m² | - |
| 1777730209 | 12.78° C | 88% | 1009.5 hPa | 0 mm | - | 24 W/m² | - |
| 1777729907 | 12.78° C | 88% | 1009.5 hPa | 0 mm | - | 23 W/m² | - |
| 1777729603 | 12.78° C | 88% | 1009.2 hPa | 0 mm | - | 20 W/m² | - |
| 1777729300 | 12.78° C | 88% | 1009.1 hPa | 0 mm | - | 17 W/m² | - |
| 1777728997 | 12.78° C | 88% | 1009.1 hPa | 0 mm | - | 12 W/m² | - |
| 1777728693 | 12.78° C | 88% | 1008.9 hPa | 0 mm | - | 9 W/m² | - |
| 1777728390 | 12.78° C | 87% | 1008.9 hPa | 0 mm | - | 6 W/m² | - |
| 1777728087 | 12.78° C | 87% | 1008.9 hPa | 0 mm | - | 4 W/m² | - |
* Rain latest hour (hover to see other rain measurements)
** Current wind speed in m/s (hover to see current wind gust speed)